Regional Weather Roundup
Issued by NWS

Home | Current Version | Previous Version | Graphics & Text | Print | Product List | Glossary On
Versions: 1 2 3 4 5 6 7 8 9 10 11 12 13 14 15 16 17 18 19 20 21 22 23 24 25 26 27 28 29 30 31 32 33 34 35 36 37 38 39 40 41 42 43 44 45 46 47 48 49 50
201
ASUS45 KSLC 222210
RWRUT

UTAH REGIONAL WEATHER ROUNDUP
NATIONAL WEATHER SERVICE SALT LAKE CITY UT
400 PM MDT SUN OCT 22 2017

UTZ001>011-023>025-222300-

NORTHERN UTAH

CITY           SKY/WX    TMP DP  RH WIND       PRES   REMARKS
BRIGHAM CITY   PTSUNNY   65  25  21 SW10      30.33S
HILL AFB       MOSUNNY   64  29  27 SW6       30.33F
LOGAN          CLOUDY    62  30  29 CALM      30.31F
OGDEN          MOSUNNY   66  30  26 SW9G16    30.32F
SALT LAKE CITY PTSUNNY   68  27  21 S6        30.31S
TOOELE VALLEY  MOSUNNY   68  32  26 N9        30.32R
WENDOVER       SUNNY     63  26  24 NE5       30.30F
WEST JORDAN    MOSUNNY   65  32  29 S13       30.33S

$$

UTZ011>015-024>027-222300-

CENTRAL/NORTHEAST UTAH

CITY           SKY/WX    TMP DP  RH WIND       PRES   REMARKS
PROVO AIRPORT  PTSUNNY   66  30  26 CALM      30.34F
MOAB/CANYONLAN SUNNY     65  14  14 CALM      30.34F
DELTA          SUNNY     64  23  20 SW6       30.36F
PRICE          SUNNY     59  21  23 S7        30.38F
RICHFIELD      SUNNY     72  18  13 W3G14     30.36F
ROOSEVELT      SUNNY     61  21  21 E9        30.32F
VERNAL         CLOUDY    59  23  25 VRB6      30.31F

$$

UTZ013>016-019>022-027-222300-

SOUTHERN UTAH

CITY           SKY/WX    TMP DP  RH WIND       PRES   REMARKS
BRYCE CANYON   SUNNY     67  11  11 NW10      30.47S
CEDAR CITY     SUNNY     71  19  14 CALM      30.37F
MILFORD        SUNNY     71  20  14 CALM      30.34F
ST GEORGE      CLEAR     74  17  11 CALM      30.28F
HANKSVILLE     SUNNY     68  18  14 E3        30.36F
KANAB          SUNNY     75  23  14 S8G14     30.38F
BLANDING         N/A     64  15  15 S7        30.48F

$$

REGIONAL REPORTS     COLORADO/ARIZONA

CITY           SKY/WX    TMP DP  RH WIND       PRES   REMARKS
CRAIG, CO      CLOUDY    59  29  31 SW13      30.33S
GRAND JUNCTION SUNNY     62  18  18 NW5       30.35F
RIFLE, CO      SUNNY     60  22  23 W3        30.36F
MONTROSE, CO   CLOUDY    61  24  24 CALM      30.39F
CORTEZ, CO     SUNNY     64  15  15 W16G23    30.38F
COLORADO CITY    N/A     75  30  19 W7        30.38F
PAGE, AZ       SUNNY     69  18  14 N7        30.33F
GRAND CANYON   SUNNY     71  15  11 W7        30.44F
KINGMAN, AZ    SUNNY     83  21  10 N8        30.28F
FLAGSTAFF, AZ  SUNNY     70  16  12 NE9       30.44F

$$

REGIONAL REPORTS    NEVADA/IDAHO/WYOMING

CITY           SKY/WX    TMP DP  RH WIND       PRES   REMARKS
LAS VEGAS, NV  SUNNY     81  27  14 CALM      30.25F
ELY, NY        SUNNY     70  15  12 NW14      30.41S
ELKO, NV       MOSUNNY   66  26  22 SW8       30.38S
POCATELLO, ID  PTSUNNY   62  37  39 W22G28    30.28R
BURLEY, ID     MOSUNNY   64  39  39 W15G24    30.27S
FORT BRIDGER,    N/A     57  25  28 W29G39    30.36R
EVANSTON, WY   CLOUDY    57  25  29 W21G37    30.38R
ROCK SPRINGS,  CLOUDY    55  26  32 W28G38    30.29R
KEMMERER, WY   CLOUDY    52  27  37 W26G37    30.32R

$$




USA.gov is the U.S. government's official web portal to all federal, state and local government web resources and services.